(139266) = 2001 HB56

Discovered at Socorro on 2001-04-24 by LINEAR.

Orbit

Orbit type: Phocaea

Note: WebGL enabled browser required.

epoch2023-02-25.0
epoch JD2460000.5
perihelion date2019-12-14.02865
perihelion JD2458831.52865
argument of perihelion (°)156.40133
ascending node (°)80.26698
inclination (°)12.90564
eccentricity0.1366867
perihelion distance (AU)2.0698605
Tisserand w.r.t. Jupiter3.5
ΔV w.r.t. Earth (km/sec)9.8
semimajor axis (AU)2.3975775
mean anomaly (°)310.34784
mean daily motion (°/day)0.26548800
aphelion distance (AU)2.725
period (years)3.71
P-vector [x]-0.53951797
P-vector [y]-0.80369398
P-vector [z]-0.25099072
Q-vector [x]0.81268850
Q-vector [y]-0.41913990
Q-vector [z]-0.40479519
absolute magnitude16.26
phase slope0.15
uncertainty0
referenceMPO 745323
observations used597
oppositions17
arc length (days)8103
first opposition used2001
last opposition used2023
residual rms (arc-secs)0.75
perturbers coarse indicatorM-v
perturbers precise indicator003Ek
first observation date used2001-04-24.0
last observation date used2023-07-01.0
computer nameMPCLINUX
JD of orbit computation2456639.762424
perihelion JD uncertainty (days)1.4291E-04
argument of perihelion uncertainty (°)5.9559E-05
ascending node uncertainty (°)4.5557E-05
inclination uncertainty (°)1.0967E-05
eccentricity uncertainty 1.1797E-07
perihelion distance uncertainty (AU)2.8906E-07
Minimum Orbit Intersection Distances (in AU)
for orbit epoch: 2460000.5, reference: E2023-N07
Mercury1.61077
Venus1.34745
Earth1.06269
Mars0.55867
Jupiter2.29922
Saturn6.36862
Uranus16.153
Neptune27.1737

Observations

613 total observations over interval: 2001 04 24.40918 – 2023 07 01.188002
These data are available for download (format description).

Date (UT) J2000 RA J2000 Dec Magn Location Ref
2001 04 24.40918 15 57 48.39 -06 54 02.8 19.2   704 – Lincoln Laboratory ETS, New Mexico MPS 30380
2001 04 24.42430 15 57 47.78 -06 54 06.0 18.6   704 – Lincoln Laboratory ETS, New Mexico MPS 30380
2001 04 24.43914 15 57 47.18 -06 54 07.7 18.9   704 – Lincoln Laboratory ETS, New Mexico MPS 30380
2001 04 25.31161 15 57 10.32 -06 55 33.0 18.6 R 699 – Lowell Observatory-LONEOS MPS 30380
2001 04 25.33275 15 57 09.34 -06 55 35.6   699 – Lowell Observatory-LONEOS MPS 30380
2001 04 25.35390 15 57 08.39 -06 55 38.2   699 – Lowell Observatory-LONEOS MPS 30380
2001 04 25.37505 15 57 07.42 -06 55 40.8   699 – Lowell Observatory-LONEOS MPS 30380
2001 05 21.25457 15 31 51.53 -08 24 04.0 17.7 R 699 – Lowell Observatory-LONEOS MPS 31742
2001 05 21.25924 15 31 51.25 -08 24 05.1   699 – Lowell Observatory-LONEOS MPS 31742
2001 05 21.26392 15 31 50.88 -08 24 06.8   699 – Lowell Observatory-LONEOS MPS 31742
2001 05 21.26859 15 31 50.52 -08 24 08.1   699 – Lowell Observatory-LONEOS MPS 31742
2001 05 21.27540 15 31 50.12 -08 24 10.8 18.0 R 699 – Lowell Observatory-LONEOS MPS 31312
2001 05 21.28010 15 31 49.81 -08 24 11.5   699 – Lowell Observatory-LONEOS MPS 31312
2001 05 21.28479 15 31 49.51 -08 24 13.7   699 – Lowell Observatory-LONEOS MPS 31312
2001 05 21.28950 15 31 49.16 -08 24 14.5   699 – Lowell Observatory-LONEOS MPS 31312
2001 05 22.25813 15 30 47.01 -08 29 26.7 18.3   704 – Lincoln Laboratory ETS, New Mexico MPS 31312
2001 05 22.26843 15 30 46.31 -08 29 30.2 18.6   704 – Lincoln Laboratory ETS, New Mexico MPS 31312
2001 05 22.27901 15 30 45.56 -08 29 33.5 18.4   704 – Lincoln Laboratory ETS, New Mexico MPS 31312
2001 05 22.28932 15 30 44.84 -08 29 37.2 19.0   704 – Lincoln Laboratory ETS, New Mexico MPS 31312
2001 05 22.29969 15 30 44.15 -08 29 41.0 18.3   704 – Lincoln Laboratory ETS, New Mexico MPS 31312
2001 05 24.27261 15 28 38.78 -08 40 39.7 18.4   704 – Lincoln Laboratory ETS, New Mexico MPS 31312
2001 05 24.28453 15 28 38.13 -08 40 45.3 18.4   704 – Lincoln Laboratory ETS, New Mexico MPS 31312
2001 05 24.29642 15 28 37.29 -08 40 49.4 18.6   704 – Lincoln Laboratory ETS, New Mexico MPS 31312
2001 05 24.30828 15 28 36.54 -08 40 53.0 18.6   704 – Lincoln Laboratory ETS, New Mexico MPS 31312
2001 05 24.32014 15 28 35.72 -08 40 57.5 18.2   704 – Lincoln Laboratory ETS, New Mexico MPS 31312
2001 05 25.26519 15 27 36.79 -08 46 27.2 18.6   704 – Lincoln Laboratory ETS, New Mexico MPS 31312
2001 05 25.27634 15 27 35.99 -08 46 31.5 19.2   704 – Lincoln Laboratory ETS, New Mexico MPS 31312
2001 05 25.29854 15 27 34.58 -08 46 39.2 18.9   704 – Lincoln Laboratory ETS, New Mexico MPS 31312
2001 05 25.30964 15 27 33.84 -08 46 42.8 19.2   704 – Lincoln Laboratory ETS, New Mexico MPS 31312
2001 06 11.16914 15 12 53.17 -10 44 25.1 18.6 R 699 – Lowell Observatory-LONEOS MPS 31742
2001 06 11.19561 15 12 52.05 -10 44 38.6   699 – Lowell Observatory-LONEOS MPS 31742
2001 06 11.22216 15 12 50.91 -10 44 51.4   699 – Lowell Observatory-LONEOS MPS 31742
2001 06 11.24881 15 12 49.79 -10 45 03.8   699 – Lowell Observatory-LONEOS MPS 31742
2001 06 20.38270 15 08 11.39 -12 01 31.4 20.4   608 – Haleakala-AMOS MPS 31742
2001 06 20.39360 15 08 11.16 -12 01 36.0 19.7   608 – Haleakala-AMOS MPS 31742
2001 06 20.40560 15 08 10.87 -12 01 42.1 20.2   608 – Haleakala-AMOS MPS 31742
2002 10 05.29570 02 02 01.70 -06 30 19.0 20.2   644 – Palomar Mountain/NEAT MPS 95739
2002 10 05.32480 02 02 00.07 -06 30 27.3 20.0   644 – Palomar Mountain/NEAT MPS 95739
2002 10 05.34543 02 01 58.91 -06 30 32.6 20.4   644 – Palomar Mountain/NEAT MPS 95739
2003 12 27.38070 08 43 15.21 +29 43 05.3 20.2   704 – Lincoln Laboratory ETS, New Mexico MPS 95739
2003 12 27.39363 08 43 14.77 +29 43 12.9 20.2   704 – Lincoln Laboratory ETS, New Mexico MPS 95739
2003 12 27.41999 08 43 13.74 +29 43 27.8 20.2   704 – Lincoln Laboratory ETS, New Mexico MPS 95739
2003 12 29.39009 08 41 58.40 +30 01 56.2 20.7   704 – Lincoln Laboratory ETS, New Mexico MPS 95739
2003 12 29.40414 08 41 58.00 +30 02 04.8 20.5   704 – Lincoln Laboratory ETS, New Mexico MPS 95739
2003 12 29.41996 08 41 57.22 +30 02 13.4 20.0   704 – Lincoln Laboratory ETS, New Mexico MPS 95739
2003 12 29.43825 08 41 56.52 +30 02 22.7 19.9   704 – Lincoln Laboratory ETS, New Mexico MPS 95739
2004 02 11.24585 07 56 46.46 +35 26 58.6 20.0   704 – Lincoln Laboratory ETS, New Mexico MPS 98690
2004 02 11.27038 07 56 44.96 +35 27 03.0 19.6   704 – Lincoln Laboratory ETS, New Mexico MPS 98690
2004 02 11.28225 07 56 44.36 +35 27 05.7 19.8   704 – Lincoln Laboratory ETS, New Mexico MPS 98690
2005 06 07.63501 19 52 58.22 -27 46 23.7 19.2 R E12 – Siding Spring Survey MPS 135896
2005 06 07.64749 19 52 57.95 -27 46 31.9 18.9 R E12 – Siding Spring Survey MPS 135896
2005 06 07.65999 19 52 57.72 -27 46 39.5 19.0 R E12 – Siding Spring Survey MPS 135896
2005 06 07.67253 19 52 57.54 -27 46 47.4 19.5 R E12 – Siding Spring Survey MPS 135896
2005 07 10.58838 19 27 36.79 -33 32 59.3 19.0 V E12 – Siding Spring Survey MPS 137905
2005 07 10.59813 19 27 36.18 -33 33 04.3 19.4 V E12 – Siding Spring Survey MPS 137905
2005 07 10.60759 19 27 35.49 -33 33 10.1 19.1 V E12 – Siding Spring Survey MPS 137905
2005 07 10.61647 19 27 34.84 -33 33 14.9 19.3 V E12 – Siding Spring Survey MPS 137905
2006 10 31.86059 03 36 44.69 +08 14 21.8 19.7 V A50 – Andrushivka Astronomical Observatory MPS 188369
2006 10 31.88366 03 36 43.35 +08 14 20.6 19.1 V A50 – Andrushivka Astronomical Observatory MPS 188369
2006 11 19.26686 03 17 25.18 +08 05 20.5 19.4 V 703 – Catalina Sky Survey MPS 188369
2006 11 19.27346 03 17 24.79 +08 05 24.0 19.5 V 703 – Catalina Sky Survey MPS 188369
2006 11 19.28010 03 17 24.39 +08 05 23.8 20.4 V 703 – Catalina Sky Survey MPS 188369
2006 11 19.28673 03 17 23.89 +08 05 23.8 19.3 V 703 – Catalina Sky Survey MPS 188369
2006 11 23.27073 03 13 12.90 +08 07 23.3 19.8 V G96 – Mt. Lemmon Survey MPS 188369
2006 11 23.27608 03 13 12.54 +08 07 23.7 19.6 V G96 – Mt. Lemmon Survey MPS 188369
2006 11 23.28140 03 13 12.21 +08 07 23.9 19.7 V G96 – Mt. Lemmon Survey MPS 188369
2006 11 23.28675 03 13 11.85 +08 07 24.0 19.9 V G96 – Mt. Lemmon Survey MPS 188369
2008 01 12.40743 11 29 22.06 +21 36 13.4 20.0   704 – Lincoln Laboratory ETS, New Mexico MPS 234951
2008 01 12.42049 11 29 22.23 +21 36 17.7 20.1   704 – Lincoln Laboratory ETS, New Mexico MPS 234951
2008 01 12.43333 11 29 22.40 +21 36 24.7 20.1   704 – Lincoln Laboratory ETS, New Mexico MPS 234951
2008 01 12.44619 11 29 22.68 +21 36 29.7 19.6   704 – Lincoln Laboratory ETS, New Mexico MPS 234951
2008 02 03.29699 11 28 54.15 +24 58 08.2 19.8 V 703 – Catalina Sky Survey MPS 237204
2008 02 03.30421 11 28 54.04 +24 58 12.9 19.5 V 703 – Catalina Sky Survey MPS 237204
2008 02 03.31142 11 28 53.94 +24 58 17.4 19.6 V 703 – Catalina Sky Survey MPS 237204
2008 02 03.31860 11 28 53.72 +24 58 22.6 20.1 V 703 – Catalina Sky Survey MPS 237204
2008 02 11.27648 11 24 53.96 +26 23 08.7 18.7 V 703 – Catalina Sky Survey MPS 238954
2008 02 11.28344 11 24 53.67 +26 23 11.1 19.7 V 703 – Catalina Sky Survey MPS 238954
2008 02 11.29039 11 24 53.38 +26 23 16.1 19.4 V 703 – Catalina Sky Survey MPS 238954
2008 02 11.29734 11 24 53.06 +26 23 22.4 18.6 V 703 – Catalina Sky Survey MPS 238954
2008 02 18.23973 11 19 53.32 +27 35 16.5 19.3 V 703 – Catalina Sky Survey MPS 240451
2008 02 18.24611 11 19 53.04 +27 35 19.3 19.4 V 703 – Catalina Sky Survey MPS 240451
2008 02 18.25226 11 19 52.75 +27 35 24.1 19.1 V 703 – Catalina Sky Survey MPS 240451
2008 02 18.25843 11 19 52.42 +27 35 26.4 19.9 V 703 – Catalina Sky Survey MPS 240451
2008 02 29.22707 11 09 50.47 +29 14 01.3 19.4 V 703 – Catalina Sky Survey MPS 241800
2008 02 29.23440 11 09 50.07 +29 14 04.7 19.2 V 703 – Catalina Sky Survey MPS 241800
2008 02 29.24169 11 09 49.57 +29 14 08.0 19.2 V 703 – Catalina Sky Survey MPS 241800
2008 02 29.24899 11 09 49.17 +29 14 11.7 19.0 V 703 – Catalina Sky Survey MPS 241800
2008 03 13.21655 10 56 39.19 +30 28 19.8 19.1 V 703 – Catalina Sky Survey MPS 243918
2008 03 13.22368 10 56 38.72 +30 28 21.8 19.1 V 703 – Catalina Sky Survey MPS 243918
2008 03 13.23075 10 56 38.29 +30 28 23.4 19.3 V 703 – Catalina Sky Survey MPS 243918
2008 03 13.23784 10 56 37.82 +30 28 24.4 19.2 V 703 – Catalina Sky Survey MPS 243918
